Time,TemperatureF,DewpointF,PressureIn,WindDirection,WindDirectionDegrees,WindSpeedMPH,WindSpeedGustMPH,Humidity,HourlyPrecipIn,Conditions,Clouds,dailyrainin,SolarRadiationWatts/m^2,SoftwareType,DateUTC
2013-07-31 00:02:00,57.0,53.0,-100.00,SSW,198,0.0,4.0,87,0.00,,,0.00,1.000000,,2013-07-31 08:02:00,
2013-07-31 00:12:00,57.0,53.0,-100.00,SSW,198,0.0,4.0,87,0.00,,,0.00,1.000000,,2013-07-31 08:12:00,
2013-07-31 00:22:00,57.0,53.0,-100.00,SSW,198,0.0,4.0,87,0.00,,,0.00,1.000000,,2013-07-31 08:22:00,
2013-07-31 00:53:00,55.0,52.0,-100.00,NNE,23,0.0,1.0,91,0.00,,,0.00,0.000000,,2013-07-31 08:53:00,
2013-07-31 01:02:00,55.0,52.0,-100.00,NNE,23,0.0,1.0,91,0.00,,,0.00,0.000000,,2013-07-31 09:02:00,
2013-07-31 01:12:00,55.0,52.0,-100.00,NNE,23,0.0,1.0,91,0.00,,,0.00,0.000000,,2013-07-31 09:12:00,
2013-07-31 01:22:00,55.0,52.0,-100.00,NNE,23,0.0,1.0,91,0.00,,,0.00,0.000000,,2013-07-31 09:22:00,
2013-07-31 01:52:00,53.0,51.0,-100.00,NNW,338,0.0,1.0,92,0.00,,,0.00,0.000000,,2013-07-31 09:52:00,
2013-07-31 02:02:00,53.0,51.0,-100.00,NNW,338,0.0,1.0,92,0.00,,,0.00,0.000000,,2013-07-31 10:02:00,
2013-07-31 02:12:00,53.0,51.0,-100.00,NNW,338,0.0,1.0,92,0.00,,,0.00,0.000000,,2013-07-31 10:12:00,
2013-07-31 02:22:00,53.0,51.0,-100.00,NNW,338,0.0,1.0,92,0.00,,,0.00,0.000000,,2013-07-31 10:22:00,
2013-07-31 02:52:00,51.0,49.0,-100.00,North,9,0.0,0.0,94,0.00,,,0.00,0.000000,,2013-07-31 10:52:00,
2013-07-31 03:03:00,51.0,49.0,-100.00,North,9,0.0,0.0,94,0.00,,,0.00,0.000000,,2013-07-31 11:03:00,
2013-07-31 03:12:00,51.0,49.0,-100.00,North,9,0.0,0.0,94,0.00,,,0.00,0.000000,,2013-07-31 11:12:00,
2013-07-31 03:22:00,51.0,49.0,-100.00,North,9,0.0,0.0,94,0.00,,,0.00,0.000000,,2013-07-31 11:22:00,
2013-07-31 04:02:00,50.0,48.0,-100.00,WSW,243,0.0,3.0,93,0.00,,,0.00,0.000000,,2013-07-31 12:02:00,
2013-07-31 04:12:00,50.0,48.0,-100.00,WSW,243,0.0,3.0,93,0.00,,,0.00,0.000000,,2013-07-31 12:12:00,
2013-07-31 04:22:00,50.0,48.0,-100.00,WSW,243,0.0,3.0,93,0.00,,,0.00,0.000000,,2013-07-31 12:22:00,
2013-07-31 04:53:00,49.0,48.0,-100.00,NNW,345,0.0,0.0,97,0.00,,,0.00,0.000000,,2013-07-31 12:53:00,
2013-07-31 05:02:00,49.0,48.0,-100.00,NNW,345,0.0,0.0,97,0.00,,,0.00,0.000000,,2013-07-31 13:02:00,
2013-07-31 05:12:00,49.0,48.0,-100.00,NNW,345,0.0,0.0,97,0.00,,,0.00,0.000000,,2013-07-31 13:12:00,
2013-07-31 05:22:00,49.0,48.0,-100.00,NNW,345,0.0,0.0,97,0.00,,,0.00,0.000000,,2013-07-31 13:22:00,
2013-07-31 05:53:00,51.0,50.0,-100.00,NE,43,0.0,0.0,97,0.00,,,0.00,0.000000,,2013-07-31 13:53:00,
2013-07-31 06:02:00,51.0,50.0,-100.00,NE,43,0.0,0.0,97,0.00,,,0.00,0.000000,,2013-07-31 14:02:00,
2013-07-31 06:12:00,51.0,50.0,-100.00,NE,43,0.0,0.0,97,0.00,,,0.00,0.000000,,2013-07-31 14:12:00,
2013-07-31 06:22:00,51.0,50.0,-100.00,NE,43,0.0,0.0,97,0.00,,,0.00,0.000000,,2013-07-31 14:22:00,
2013-07-31 06:53:00,51.0,50.0,-100.00,SSW,205,0.0,1.0,95,0.00,,,0.00,6.000000,,2013-07-31 14:53:00,
2013-07-31 07:02:00,51.0,50.0,-100.00,SSW,205,0.0,1.0,95,0.00,,,0.00,6.000000,,2013-07-31 15:02:00,
2013-07-31 07:12:00,51.0,50.0,-100.00,SSW,205,0.0,1.0,95,0.00,,,0.00,6.000000,,2013-07-31 15:12:00,
2013-07-31 07:22:00,51.0,50.0,-100.00,SSW,205,0.0,1.0,95,0.00,,,0.00,6.000000,,2013-07-31 15:22:00,
2013-07-31 07:53:00,52.0,50.0,-100.00,SSW,212,0.0,2.0,93,0.00,,,0.00,30.000000,,2013-07-31 15:53:00,
2013-07-31 08:02:00,52.0,50.0,-100.00,SSW,212,0.0,2.0,93,0.00,,,0.00,30.000000,,2013-07-31 16:02:00,
2013-07-31 08:12:00,52.0,50.0,-100.00,SSW,212,0.0,2.0,93,0.00,,,0.00,30.000000,,2013-07-31 16:12:00,
2013-07-31 08:22:00,52.0,50.0,-100.00,SSW,212,0.0,2.0,93,0.00,,,0.00,30.000000,,2013-07-31 16:22:00,
2013-07-31 08:52:00,54.0,52.0,-100.00,SW,227,0.0,2.0,92,0.00,,,0.00,49.000000,,2013-07-31 16:52:00,
2013-07-31 09:02:00,54.0,52.0,-100.00,SW,227,0.0,2.0,92,0.00,,,0.00,49.000000,,2013-07-31 17:02:00,
2013-07-31 09:12:00,54.0,52.0,-100.00,SW,227,0.0,2.0,92,0.00,,,0.00,49.000000,,2013-07-31 17:12:00,
2013-07-31 09:22:00,54.0,52.0,-100.00,SW,227,0.0,2.0,92,0.00,,,0.00,49.000000,,2013-07-31 17:22:00,
2013-07-31 09:53:00,60.0,54.0,-100.00,SSW,199,0.0,3.0,81,0.00,,,0.00,164.000000,,2013-07-31 17:53:00,
2013-07-31 10:02:00,60.0,54.0,-100.00,SSW,199,0.0,3.0,81,0.00,,,0.00,164.000000,,2013-07-31 18:02:00,
2013-07-31 10:12:00,60.0,54.0,-100.00,SSW,199,0.0,3.0,81,0.00,,,0.00,164.000000,,2013-07-31 18:12:00,
2013-07-31 10:22:00,60.0,54.0,-100.00,SSW,199,0.0,3.0,81,0.00,,,0.00,164.000000,,2013-07-31 18:22:00,
2013-07-31 14:02:00,71.0,56.0,-100.00,West,272,3.0,9.0,60,-99.99,,,0.00,714.000000,,2013-07-31 22:02:00,
2013-07-31 14:12:00,71.0,56.0,-100.00,West,272,3.0,9.0,60,-99.99,,,0.00,714.000000,,2013-07-31 22:12:00,
2013-07-31 15:52:00,71.0,56.0,-100.00,West,279,3.0,10.0,59,0.00,,,0.00,706.000000,,2013-07-31 23:52:00,
2013-07-31 16:02:00,71.0,56.0,-100.00,West,279,3.0,10.0,59,0.00,,,0.00,706.000000,,2013-08-01 00:02:00,
2013-07-31 16:12:00,71.0,56.0,-100.00,West,279,3.0,10.0,59,0.00,,,0.00,706.000000,,2013-08-01 00:12:00,
2013-07-31 16:22:00,71.0,56.0,-100.00,West,279,3.0,10.0,59,0.00,,,0.00,706.000000,,2013-08-01 00:22:00,
2013-07-31 16:52:00,68.0,54.0,-100.00,WSW,237,4.0,11.0,62,0.00,,,0.00,653.000000,,2013-08-01 00:52:00,
2013-07-31 17:02:00,68.0,54.0,-100.00,WSW,237,4.0,11.0,62,0.00,,,0.00,653.000000,,2013-08-01 01:02:00,
2013-07-31 17:12:00,68.0,54.0,-100.00,WSW,237,4.0,11.0,62,0.00,,,0.00,653.000000,,2013-08-01 01:12:00,
2013-07-31 17:22:00,68.0,54.0,-100.00,WSW,237,4.0,11.0,62,0.00,,,0.00,653.000000,,2013-08-01 01:22:00,
2013-07-31 17:53:00,67.0,54.0,-100.00,WSW,253,3.0,13.0,63,0.00,,,0.00,564.000000,,2013-08-01 01:53:00,
2013-07-31 18:02:00,67.0,54.0,-100.00,WSW,253,3.0,13.0,63,0.00,,,0.00,564.000000,,2013-08-01 02:02:00,
2013-07-31 18:12:00,67.0,54.0,-100.00,WSW,253,3.0,13.0,63,0.00,,,0.00,564.000000,,2013-08-01 02:12:00,
2013-07-31 18:22:00,67.0,54.0,-100.00,WSW,253,3.0,13.0,63,0.00,,,0.00,564.000000,,2013-08-01 02:22:00,
2013-07-31 18:53:00,64.0,53.0,-100.00,WSW,243,7.0,14.0,67,0.00,,,0.00,438.000000,,2013-08-01 02:53:00,
2013-07-31 19:02:00,64.0,53.0,-100.00,WSW,243,7.0,14.0,67,0.00,,,0.00,438.000000,,2013-08-01 03:02:00,
2013-07-31 19:12:00,64.0,53.0,-100.00,WSW,243,7.0,14.0,67,0.00,,,0.00,438.000000,,2013-08-01 03:12:00,
2013-07-31 19:22:00,64.0,53.0,-100.00,WSW,243,7.0,14.0,67,0.00,,,0.00,438.000000,,2013-08-01 03:22:00,
2013-07-31 19:53:00,62.0,53.0,-100.00,SW,236,5.0,11.0,72,0.00,,,0.00,252.000000,,2013-08-01 03:53:00,
2013-07-31 20:02:00,62.0,53.0,-100.00,SW,236,5.0,11.0,72,0.00,,,0.00,252.000000,,2013-08-01 04:02:00,
2013-07-31 20:12:00,62.0,53.0,-100.00,SW,236,5.0,11.0,72,0.00,,,0.00,252.000000,,2013-08-01 04:12:00,
2013-07-31 20:22:00,62.0,53.0,-100.00,SW,236,5.0,11.0,72,0.00,,,0.00,252.000000,,2013-08-01 04:22:00,
2013-07-31 20:53:00,60.0,53.0,-100.00,SW,228,5.0,11.0,79,0.00,,,0.00,131.000000,,2013-08-01 04:53:00,
2013-07-31 21:02:00,60.0,53.0,-100.00,SW,228,5.0,11.0,79,0.00,,,0.00,131.000000,,2013-08-01 05:02:00,
2013-07-31 21:13:00,60.0,53.0,-100.00,SW,228,5.0,11.0,79,0.00,,,0.00,131.000000,,2013-08-01 05:13:00,
2013-07-31 21:22:00,60.0,53.0,-100.00,SW,228,5.0,11.0,79,0.00,,,0.00,131.000000,,2013-08-01 05:22:00,
2013-07-31 21:53:00,61.0,54.0,-100.00,SSW,212,5.0,9.0,78,0.00,,,0.00,74.000000,,2013-08-01 05:53:00,
2013-07-31 22:02:00,61.0,54.0,-100.00,SSW,212,5.0,9.0,78,0.00,,,0.00,74.000000,,2013-08-01 06:02:00,
2013-07-31 22:12:00,61.0,54.0,-100.00,SSW,212,5.0,9.0,78,0.00,,,0.00,74.000000,,2013-08-01 06:12:00,
2013-07-31 22:22:00,61.0,54.0,-100.00,SSW,212,5.0,9.0,78,0.00,,,0.00,74.000000,,2013-08-01 06:22:00,
2013-07-31 22:53:00,60.0,54.0,-100.00,SSW,209,3.0,9.0,81,0.00,,,0.00,18.000000,,2013-08-01 06:53:00,
2013-07-31 23:02:00,60.0,54.0,-100.00,SSW,209,3.0,9.0,81,0.00,,,0.00,18.000000,,2013-08-01 07:02:00,
2013-07-31 23:12:00,60.0,54.0,-100.00,SSW,209,3.0,9.0,81,0.00,,,0.00,18.000000,,2013-08-01 07:12:00,
2013-07-31 23:22:00,60.0,54.0,-100.00,SSW,209,3.0,9.0,81,0.00,,,0.00,18.000000,,2013-08-01 07:22:00,
2013-07-31 23:55:00,59.0,54.0,-100.00,SSW,210,2.0,8.0,82,0.00,,,0.00,1.000000,,2013-08-01 07:55:00,